Time,TemperatureF,DewpointF,PressureIn,WindDirection,WindDirectionDegrees,WindSpeedMPH,WindSpeedGustMPH,Humidity,HourlyPrecipIn,Conditions,Clouds,dailyrainin,SoftwareType,DateUTC
2013-02-07 00:00:00,35.0,30.7,30.16,East,94,4.0,4.0,84,0.00,,,0.00,Wunderground v.1.15,2013-02-07 05:00:00,
2013-02-07 00:06:00,35.1,30.8,30.15,East,94,4.0,6.0,84,0.00,,,0.00,Wunderground v.1.15,2013-02-07 05:06:00,
2013-02-07 00:12:00,35.1,30.8,30.15,East,91,6.0,6.0,84,0.00,,,0.00,Wunderground v.1.15,2013-02-07 05:12:00,
2013-02-07 00:18:00,35.1,30.8,30.14,East,88,6.0,7.0,84,0.00,,,0.00,Wunderground v.1.15,2013-02-07 05:18:00,
2013-02-07 00:24:00,35.1,30.8,30.14,East,96,6.0,7.0,84,0.00,,,0.00,Wunderground v.1.15,2013-02-07 05:24:00,
2013-02-07 00:30:00,35.1,30.8,30.14,East,99,6.0,6.0,84,0.00,,,0.00,Wunderground v.1.15,2013-02-07 05:30:00,
2013-02-07 00:36:00,35.2,30.9,30.13,East,96,7.0,11.0,84,0.00,,,0.00,Wunderground v.1.15,2013-02-07 05:36:00,
2013-02-07 00:42:00,35.3,30.7,30.13,ESE,113,7.0,11.0,83,0.00,,,0.00,Wunderground v.1.15,2013-02-07 05:42:00,
2013-02-07 00:48:00,35.4,30.8,30.12,East,94,7.0,11.0,83,0.00,,,0.00,Wunderground v.1.15,2013-02-07 05:48:00,
2013-02-07 00:54:00,35.5,30.8,30.12,ESE,117,7.0,8.0,83,0.00,,,0.00,Wunderground v.1.15,2013-02-07 05:54:00,
2013-02-07 01:00:00,35.6,30.9,30.13,East,101,6.0,6.0,83,0.00,,,0.00,Wunderground v.1.15,2013-02-07 06:00:00,
2013-02-07 01:06:00,35.7,31.0,30.13,ESE,121,5.0,9.0,83,0.00,,,0.00,Wunderground v.1.15,2013-02-07 06:06:00,
2013-02-07 01:12:00,35.9,30.9,30.13,ESE,104,5.0,5.0,82,0.00,,,0.00,Wunderground v.1.15,2013-02-07 06:12:00,
2013-02-07 01:18:00,35.9,31.2,30.13,East,100,5.0,8.0,83,0.00,,,0.00,Wunderground v.1.15,2013-02-07 06:18:00,
2013-02-07 01:24:00,36.0,31.3,30.13,East,100,6.0,6.0,83,0.00,,,0.00,Wunderground v.1.15,2013-02-07 06:24:00,
2013-02-07 01:30:00,36.0,31.3,30.13,East,96,5.0,5.0,83,0.00,,,0.00,Wunderground v.1.15,2013-02-07 06:30:00,
2013-02-07 01:36:00,35.9,31.2,30.13,ESE,123,4.0,9.0,83,0.00,,,0.00,Wunderground v.1.15,2013-02-07 06:36:00,
2013-02-07 01:42:00,35.9,31.2,30.13,ESE,104,4.0,5.0,83,0.00,,,0.00,Wunderground v.1.15,2013-02-07 06:42:00,
2013-02-07 01:48:00,35.9,31.2,30.14,ESE,108,3.0,5.0,83,0.00,,,0.00,Wunderground v.1.15,2013-02-07 06:48:00,
2013-02-07 01:54:00,35.9,31.2,30.14,ESE,109,3.0,4.0,83,0.00,,,0.00,Wunderground v.1.15,2013-02-07 06:54:00,
2013-02-07 02:00:00,35.9,31.2,30.14,ESE,109,2.0,2.0,83,0.00,,,0.00,Wunderground v.1.15,2013-02-07 07:00:00,
2013-02-07 02:06:00,35.8,31.1,30.14,ESE,109,0.0,2.0,83,0.00,,,0.00,Wunderground v.1.15,2013-02-07 07:06:00,
2013-02-07 02:12:00,35.8,31.1,30.14,ESE,109,0.0,0.0,83,0.00,,,0.00,Wunderground v.1.15,2013-02-07 07:12:00,
2013-02-07 02:18:00,35.7,31.0,30.14,ESE,109,0.0,0.0,83,0.00,,,0.00,Wunderground v.1.15,2013-02-07 07:18:00,
2013-02-07 02:24:00,35.7,31.0,30.14,ESE,109,0.0,0.0,83,0.00,,,0.00,Wunderground v.1.15,2013-02-07 07:24:00,
2013-02-07 02:30:00,35.6,31.2,30.13,ESE,109,0.0,0.0,84,0.00,,,0.00,Wunderground v.1.15,2013-02-07 07:30:00,
2013-02-07 02:36:00,35.4,31.0,30.13,ESE,109,0.0,0.0,84,0.00,,,0.00,Wunderground v.1.15,2013-02-07 07:36:00,
2013-02-07 02:42:00,35.3,30.9,30.13,ESE,109,1.0,1.0,84,0.00,,,0.00,Wunderground v.1.15,2013-02-07 07:42:00,
2013-02-07 02:48:00,35.3,30.9,30.13,ESE,109,1.0,1.0,84,0.00,,,0.00,Wunderground v.1.15,2013-02-07 07:48:00,
2013-02-07 02:54:00,35.3,31.2,30.13,ESE,109,0.0,0.0,85,0.00,,,0.00,Wunderground v.1.15,2013-02-07 07:54:00,
2013-02-07 03:00:00,35.3,30.9,30.13,ESE,109,0.0,0.0,84,0.00,,,0.00,Wunderground v.1.15,2013-02-07 08:00:00,
2013-02-07 03:06:00,35.3,31.2,30.13,East,80,1.0,3.0,85,0.00,,,0.00,Wunderground v.1.15,2013-02-07 08:06:00,
2013-02-07 03:12:00,35.4,31.0,30.13,East,80,2.0,2.0,84,0.00,,,0.00,Wunderground v.1.15,2013-02-07 08:12:00,
2013-02-07 03:18:00,35.5,31.1,30.13,East,80,1.0,2.0,84,0.00,,,0.00,Wunderground v.1.15,2013-02-07 08:18:00,
2013-02-07 03:24:00,35.5,31.1,30.13,East,80,2.0,3.0,84,0.00,,,0.00,Wunderground v.1.15,2013-02-07 08:24:00,
2013-02-07 03:30:00,35.6,31.2,30.13,East,80,2.0,3.0,84,0.00,,,0.00,Wunderground v.1.15,2013-02-07 08:30:00,
2013-02-07 03:36:00,35.6,31.2,30.12,East,80,3.0,3.0,84,0.00,,,0.00,Wunderground v.1.15,2013-02-07 08:36:00,
2013-02-07 03:42:00,35.6,31.2,30.12,East,80,3.0,5.0,84,0.00,,,0.00,Wunderground v.1.15,2013-02-07 08:42:00,
2013-02-07 03:48:00,35.7,31.3,30.11,East,80,3.0,5.0,84,0.00,,,0.00,Wunderground v.1.15,2013-02-07 08:48:00,
2013-02-07 03:54:00,35.6,31.2,30.11,East,81,4.0,5.0,84,0.00,,,0.00,Wunderground v.1.15,2013-02-07 08:54:00,
2013-02-07 04:00:00,35.6,31.2,30.11,East,81,3.0,3.0,84,0.00,,,0.00,Wunderground v.1.15,2013-02-07 09:00:00,
2013-02-07 04:06:00,35.6,31.2,30.11,East,81,2.0,6.0,84,0.00,,,0.00,Wunderground v.1.15,2013-02-07 09:06:00,
2013-02-07 04:12:00,35.7,31.3,30.11,East,96,3.0,5.0,84,0.00,,,0.00,Wunderground v.1.15,2013-02-07 09:12:00,
2013-02-07 04:18:00,35.8,31.4,30.10,East,82,4.0,6.0,84,0.00,,,0.00,Wunderground v.1.15,2013-02-07 09:18:00,
2013-02-07 04:24:00,35.8,31.4,30.10,ESE,105,4.0,5.0,84,0.00,,,0.00,Wunderground v.1.15,2013-02-07 09:24:00,
2013-02-07 04:30:00,35.8,31.4,30.10,East,82,4.0,4.0,84,0.00,,,0.00,Wunderground v.1.15,2013-02-07 09:30:00,
2013-02-07 04:36:00,35.8,31.4,30.10,East,98,4.0,4.0,84,0.00,,,0.00,Wunderground v.1.15,2013-02-07 09:36:00,
2013-02-07 04:42:00,35.8,31.4,30.09,East,88,4.0,5.0,84,0.00,,,0.00,Wunderground v.1.15,2013-02-07 09:42:00,
2013-02-07 04:48:00,35.9,31.5,30.09,ESE,114,5.0,7.0,84,0.00,,,0.00,Wunderground v.1.15,2013-02-07 09:48:00,
2013-02-07 04:54:00,36.0,31.6,30.09,East,86,7.0,7.0,84,0.00,,,0.00,Wunderground v.1.15,2013-02-07 09:54:00,
2013-02-07 05:00:00,36.1,31.7,30.10,ESE,103,5.0,5.0,84,0.00,,,0.00,Wunderground v.1.15,2013-02-07 10:00:00,
2013-02-07 05:06:00,36.2,31.5,30.09,ESE,103,3.0,5.0,83,0.00,,,0.00,Wunderground v.1.15,2013-02-07 10:06:00,
2013-02-07 05:12:00,36.2,31.8,30.10,ENE,71,2.0,2.0,84,0.00,,,0.00,Wunderground v.1.15,2013-02-07 10:12:00,
2013-02-07 05:18:00,36.1,31.4,30.10,ENE,71,0.0,2.0,83,0.00,,,0.00,Wunderground v.1.15,2013-02-07 10:18:00,
2013-02-07 05:24:00,36.2,31.5,30.09,ENE,71,0.0,1.0,83,0.00,,,0.00,Wunderground v.1.15,2013-02-07 10:24:00,
2013-02-07 05:30:00,36.0,31.6,30.09,ENE,73,1.0,4.0,84,0.00,,,0.00,Wunderground v.1.15,2013-02-07 10:30:00,
2013-02-07 05:36:00,35.7,31.6,30.08,East,94,3.0,7.0,85,0.00,,,0.00,Wunderground v.1.15,2013-02-07 10:36:00,
2013-02-07 05:42:00,35.7,31.6,30.08,East,89,4.0,5.0,85,0.00,,,0.00,Wunderground v.1.15,2013-02-07 10:42:00,
2013-02-07 05:48:00,35.9,31.5,30.08,East,81,4.0,5.0,84,0.00,,,0.00,Wunderground v.1.15,2013-02-07 10:48:00,
2013-02-07 05:54:00,36.0,31.6,30.09,East,81,2.0,4.0,84,0.00,,,0.00,Wunderground v.1.15,2013-02-07 10:54:00,
2013-02-07 06:00:00,36.0,31.6,30.08,East,81,1.0,3.0,84,0.00,,,0.00,Wunderground v.1.15,2013-02-07 11:00:00,
2013-02-07 06:06:00,36.0,31.6,30.09,East,81,1.0,3.0,84,0.00,,,0.00,Wunderground v.1.15,2013-02-07 11:06:00,
2013-02-07 06:12:00,35.9,31.5,30.08,East,81,1.0,3.0,84,0.00,,,0.00,Wunderground v.1.15,2013-02-07 11:12:00,
2013-02-07 06:18:00,35.9,31.8,30.09,East,81,2.0,3.0,85,0.00,,,0.00,Wunderground v.1.15,2013-02-07 11:18:00,
2013-02-07 06:24:00,35.8,31.7,30.08,East,81,2.0,5.0,85,0.00,,,0.00,Wunderground v.1.15,2013-02-07 11:24:00,
2013-02-07 06:30:00,35.8,31.7,30.08,East,81,2.0,2.0,85,0.00,,,0.00,Wunderground v.1.15,2013-02-07 11:30:00,
2013-02-07 06:36:00,35.6,31.5,30.08,East,81,1.0,3.0,85,0.00,,,0.00,Wunderground v.1.15,2013-02-07 11:36:00,
2013-02-07 06:42:00,35.6,31.5,30.08,East,81,2.0,5.0,85,0.00,,,0.00,Wunderground v.1.15,2013-02-07 11:42:00,
2013-02-07 06:48:00,35.6,31.5,30.08,East,81,3.0,5.0,85,0.00,,,0.00,Wunderground v.1.15,2013-02-07 11:48:00,
2013-02-07 06:54:00,35.9,31.8,30.08,East,81,3.0,6.0,85,0.00,,,0.00,Wunderground v.1.15,2013-02-07 11:54:00,
2013-02-07 07:00:00,36.0,31.6,30.08,East,81,3.0,3.0,84,0.00,,,0.00,Wunderground v.1.15,2013-02-07 12:00:00,
2013-02-07 07:06:00,36.1,31.7,30.08,East,81,3.0,3.0,84,0.00,,,0.00,Wunderground v.1.15,2013-02-07 12:06:00,
2013-02-07 07:12:00,36.0,31.6,30.07,East,81,3.0,4.0,84,0.00,,,0.00,Wunderground v.1.15,2013-02-07 12:12:00,
2013-02-07 07:18:00,35.9,31.5,30.07,East,81,3.0,4.0,84,0.00,,,0.00,Wunderground v.1.15,2013-02-07 12:18:00,
2013-02-07 07:24:00,35.7,31.3,30.07,East,81,3.0,5.0,84,0.00,,,0.00,Wunderground v.1.15,2013-02-07 12:24:00,
2013-02-07 07:30:00,35.7,31.3,30.07,East,81,3.0,3.0,84,0.00,,,0.00,Wunderground v.1.15,2013-02-07 12:30:00,
2013-02-07 07:36:00,35.6,31.2,30.07,East,81,2.0,3.0,84,0.00,,,0.00,Wunderground v.1.15,2013-02-07 12:36:00,
2013-02-07 07:42:00,35.4,31.3,30.07,East,81,1.0,2.0,85,0.00,,,0.00,Wunderground v.1.15,2013-02-07 12:42:00,
2013-02-07 07:48:00,35.3,31.2,30.07,East,81,3.0,5.0,85,0.00,,,0.00,Wunderground v.1.15,2013-02-07 12:48:00,
2013-02-07 07:54:00,35.3,31.2,30.07,East,81,4.0,4.0,85,0.00,,,0.00,Wunderground v.1.15,2013-02-07 12:54:00,
2013-02-07 08:00:00,35.3,31.2,30.06,East,81,4.0,4.0,85,0.00,,,0.00,Wunderground v.1.15,2013-02-07 13:00:00,
2013-02-07 08:06:00,35.1,31.0,30.07,ESE,118,4.0,4.0,85,0.00,,,0.00,Wunderground v.1.15,2013-02-07 13:06:00,
2013-02-07 08:12:00,35.0,30.9,30.06,ESE,102,3.0,3.0,85,0.00,,,0.00,Wunderground v.1.15,2013-02-07 13:12:00,
2013-02-07 08:18:00,35.1,31.0,30.06,ESE,102,4.0,5.0,85,0.00,,,0.00,Wunderground v.1.15,2013-02-07 13:18:00,
2013-02-07 08:24:00,35.5,31.4,30.05,East,98,4.0,5.0,85,0.00,,,0.00,Wunderground v.1.15,2013-02-07 13:24:00,
2013-02-07 08:30:00,35.9,31.8,30.05,East,85,4.0,6.0,85,0.00,,,0.00,Wunderground v.1.15,2013-02-07 13:30:00,
2013-02-07 08:36:00,36.2,31.8,30.05,East,98,5.0,7.0,84,0.00,,,0.00,Wunderground v.1.15,2013-02-07 13:36:00,
2013-02-07 08:42:00,36.5,32.1,30.04,East,86,6.0,6.0,84,0.00,,,0.00,Wunderground v.1.15,2013-02-07 13:42:00,
2013-02-07 08:48:00,36.8,32.1,30.04,East,96,6.0,7.0,83,0.00,,,0.00,Wunderground v.1.15,2013-02-07 13:48:00,
2013-02-07 08:54:00,37.2,32.5,30.05,East,82,5.0,6.0,83,0.00,,,0.00,Wunderground v.1.15,2013-02-07 13:54:00,
2013-02-07 09:00:00,37.7,33.0,30.05,East,81,4.0,4.0,83,0.00,,,0.00,Wunderground v.1.15,2013-02-07 14:00:00,
2013-02-07 09:06:00,38.2,33.5,30.05,East,90,4.0,5.0,83,0.00,,,0.00,Wunderground v.1.15,2013-02-07 14:06:00,
2013-02-07 09:12:00,38.6,33.6,30.05,East,94,4.0,5.0,82,0.00,,,0.00,Wunderground v.1.15,2013-02-07 14:12:00,
2013-02-07 09:18:00,39.2,33.9,30.05,East,94,4.0,5.0,81,0.00,,,0.00,Wunderground v.1.15,2013-02-07 14:18:00,
2013-02-07 09:24:00,39.6,33.9,30.05,East,94,4.0,5.0,80,0.00,,,0.00,Wunderground v.1.15,2013-02-07 14:24:00,
2013-02-07 09:30:00,40.0,34.3,30.05,East,94,4.0,5.0,80,0.00,,,0.00,Wunderground v.1.15,2013-02-07 14:30:00,
2013-02-07 09:36:00,40.6,34.6,30.05,East,94,3.0,5.0,79,0.00,,,0.00,Wunderground v.1.15,2013-02-07 14:36:00,
2013-02-07 09:42:00,41.2,34.5,30.05,East,96,4.0,5.0,77,0.00,,,0.00,Wunderground v.1.15,2013-02-07 14:42:00,
2013-02-07 09:48:00,41.9,35.5,30.05,East,97,4.0,5.0,78,0.00,,,0.00,Wunderground v.1.15,2013-02-07 14:48:00,
2013-02-07 09:54:00,42.4,35.7,30.05,ESE,104,4.0,6.0,77,0.00,,,0.00,Wunderground v.1.15,2013-02-07 14:54:00,
2013-02-07 10:00:00,42.9,35.9,30.05,ESE,106,3.0,3.0,76,0.00,,,0.00,Wunderground v.1.15,2013-02-07 15:00:00,
2013-02-07 10:06:00,43.4,36.0,30.05,East,94,3.0,3.0,75,0.00,,,0.00,Wunderground v.1.15,2013-02-07 15:06:00,
2013-02-07 10:12:00,43.9,36.5,30.05,East,91,4.0,4.0,75,0.00,,,0.00,Wunderground v.1.15,2013-02-07 15:12:00,
2013-02-07 10:18:00,44.5,36.4,30.04,East,86,4.0,5.0,73,0.00,,,0.00,Wunderground v.1.15,2013-02-07 15:18:00,
2013-02-07 10:24:00,44.9,36.8,30.04,East,89,4.0,5.0,73,0.00,,,0.00,Wunderground v.1.15,2013-02-07 15:24:00,
2013-02-07 10:30:00,45.4,37.2,30.03,East,95,4.0,4.0,73,0.00,,,0.00,Wunderground v.1.15,2013-02-07 15:30:00,
2013-02-07 10:36:00,45.9,37.4,30.03,East,99,3.0,5.0,72,0.00,,,0.00,Wunderground v.1.15,2013-02-07 15:36:00,
2013-02-07 10:42:00,46.5,38.3,30.03,East,96,3.0,5.0,73,0.00,,,0.00,Wunderground v.1.15,2013-02-07 15:42:00,
2013-02-07 10:48:00,47.3,38.7,30.03,ESE,110,4.0,7.0,72,0.00,,,0.00,Wunderground v.1.15,2013-02-07 15:48:00,
2013-02-07 10:54:00,48.0,39.0,30.03,East,89,3.0,4.0,71,0.00,,,0.00,Wunderground v.1.15,2013-02-07 15:54:00,
2013-02-07 11:00:00,48.8,38.7,30.03,SSE,159,3.0,5.0,68,0.00,,,0.00,Wunderground v.1.15,2013-02-07 16:00:00,
2013-02-07 11:06:00,49.6,38.3,30.03,East,95,4.0,5.0,65,0.00,,,0.00,Wunderground v.1.15,2013-02-07 16:06:00,
2013-02-07 11:12:00,50.1,39.2,30.02,ESE,102,4.0,5.0,66,0.00,,,0.00,Wunderground v.1.15,2013-02-07 16:12:00,
2013-02-07 11:18:00,50.9,39.5,30.02,SE,125,4.0,5.0,65,0.00,,,0.00,Wunderground v.1.15,2013-02-07 16:18:00,
2013-02-07 11:24:00,51.6,39.8,30.02,SE,130,4.0,6.0,64,0.00,,,0.00,Wunderground v.1.15,2013-02-07 16:24:00,
2013-02-07 11:30:00,52.6,39.5,30.02,SE,129,4.0,4.0,61,0.00,,,0.00,Wunderground v.1.15,2013-02-07 16:30:00,
2013-02-07 11:36:00,53.3,39.3,30.01,ESE,123,5.0,5.0,59,0.00,,,0.00,Wunderground v.1.15,2013-02-07 16:36:00,
2013-02-07 11:42:00,53.9,39.9,30.01,SE,131,5.0,7.0,59,0.00,,,0.00,Wunderground v.1.15,2013-02-07 16:42:00,
2013-02-07 11:48:00,54.5,39.1,30.01,South,178,4.0,7.0,56,0.00,,,0.00,Wunderground v.1.15,2013-02-07 16:48:00,
2013-02-07 11:54:00,54.9,39.0,30.00,SE,125,4.0,6.0,55,0.00,,,0.00,Wunderground v.1.15,2013-02-07 16:54:00,
2013-02-07 12:00:00,55.5,39.1,29.99,SE,129,5.0,6.0,54,0.00,,,0.00,Wunderground v.1.15,2013-02-07 17:00:00,
2013-02-07 12:06:00,56.0,39.1,29.99,SE,126,5.0,6.0,53,0.00,,,0.00,Wunderground v.1.15,2013-02-07 17:06:00,
2013-02-07 12:12:00,56.6,38.2,29.99,SE,127,5.0,7.0,50,0.00,,,0.00,Wunderground v.1.15,2013-02-07 17:12:00,
2013-02-07 12:18:00,57.3,41.3,29.99,ESE,115,5.0,7.0,55,0.00,,,0.00,Wunderground v.1.15,2013-02-07 17:18:00,
2013-02-07 12:24:00,57.6,39.6,29.98,SE,126,5.0,7.0,51,0.00,,,0.00,Wunderground v.1.15,2013-02-07 17:24:00,
2013-02-07 12:30:00,58.0,39.5,29.98,ESE,113,5.0,5.0,50,0.00,,,0.00,Wunderground v.1.15,2013-02-07 17:30:00,
2013-02-07 12:36:00,58.4,38.2,29.97,SE,137,4.0,8.0,47,0.00,,,0.00,Wunderground v.1.15,2013-02-07 17:36:00,
2013-02-07 12:42:00,58.7,40.1,29.97,ESE,119,5.0,7.0,50,0.00,,,0.00,Wunderground v.1.15,2013-02-07 17:42:00,
2013-02-07 12:48:00,59.1,39.4,29.96,SSE,157,4.0,7.0,48,0.00,,,0.00,Wunderground v.1.15,2013-02-07 17:48:00,
2013-02-07 12:54:00,59.5,39.2,29.96,SE,124,3.0,5.0,47,0.00,,,0.00,Wunderground v.1.15,2013-02-07 17:54:00,
2013-02-07 13:00:00,59.9,40.1,29.95,SE,138,5.0,6.0,48,0.00,,,0.00,Wunderground v.1.15,2013-02-07 18:00:00,
2013-02-07 13:06:00,60.2,39.3,29.95,SE,140,6.0,6.0,46,0.00,,,0.00,Wunderground v.1.15,2013-02-07 18:06:00,
2013-02-07 13:12:00,60.5,39.6,29.95,South,182,6.0,6.0,46,0.00,,,0.00,Wunderground v.1.15,2013-02-07 18:12:00,
2013-02-07 13:18:00,60.9,40.5,29.94,SW,232,6.0,9.0,47,0.00,,,0.00,Wunderground v.1.15,2013-02-07 18:18:00,
2013-02-07 13:24:00,61.2,41.3,29.94,SE,144,6.0,8.0,48,0.00,,,0.00,Wunderground v.1.15,2013-02-07 18:24:00,
2013-02-07 13:30:00,61.3,40.9,29.93,SSW,192,5.0,6.0,47,0.00,,,0.00,Wunderground v.1.15,2013-02-07 18:30:00,
2013-02-07 13:36:00,61.4,42.6,29.93,SE,141,6.0,9.0,50,0.00,,,0.00,Wunderground v.1.15,2013-02-07 18:36:00,
2013-02-07 13:42:00,61.4,43.1,29.93,WSW,240,7.0,7.0,51,0.00,,,0.00,Wunderground v.1.15,2013-02-07 18:42:00,
2013-02-07 13:48:00,61.5,45.7,29.93,SSE,150,5.0,7.0,56,0.00,,,0.00,Wunderground v.1.15,2013-02-07 18:48:00,
2013-02-07 13:54:00,61.5,44.2,29.92,SW,220,4.0,6.0,53,0.00,,,0.00,Wunderground v.1.15,2013-02-07 18:54:00,
2013-02-07 14:00:00,61.8,46.9,29.92,South,176,5.0,7.0,58,0.00,,,0.00,Wunderground v.1.15,2013-02-07 19:00:00,
2013-02-07 14:06:00,61.9,45.5,29.92,SW,217,5.0,7.0,55,0.00,,,0.00,Wunderground v.1.15,2013-02-07 19:06:00,
2013-02-07 14:12:00,61.8,45.5,29.92,WSW,237,6.0,6.0,55,0.00,,,0.00,Wunderground v.1.15,2013-02-07 19:12:00,
2013-02-07 14:18:00,61.6,46.7,29.92,SW,215,7.0,9.0,58,0.00,,,0.00,Wunderground v.1.15,2013-02-07 19:18:00,
2013-02-07 14:24:00,61.8,45.5,29.91,South,188,7.0,8.0,55,0.00,,,0.00,Wunderground v.1.15,2013-02-07 19:24:00,
2013-02-07 14:30:00,61.9,46.0,29.91,SSW,200,6.0,6.0,56,0.00,,,0.00,Wunderground v.1.15,2013-02-07 19:30:00,
2013-02-07 14:36:00,61.9,46.5,29.91,South,189,6.0,6.0,57,0.00,,,0.00,Wunderground v.1.15,2013-02-07 19:36:00,
2013-02-07 14:42:00,62.0,46.1,29.90,SSW,194,7.0,10.0,56,0.00,,,0.00,Wunderground v.1.15,2013-02-07 19:42:00,
2013-02-07 14:48:00,62.0,45.6,29.90,South,176,6.0,10.0,55,0.00,,,0.00,Wunderground v.1.15,2013-02-07 19:48:00,
2013-02-07 14:54:00,62.2,46.3,29.90,SW,215,5.0,6.0,56,0.00,,,0.00,Wunderground v.1.15,2013-02-07 19:54:00,
2013-02-07 15:00:00,62.4,46.5,29.90,SSW,213,4.0,4.0,56,0.00,,,0.00,Wunderground v.1.15,2013-02-07 20:00:00,
2013-02-07 15:06:00,62.7,47.2,29.89,South,188,6.0,7.0,57,0.00,,,0.00,Wunderground v.1.15,2013-02-07 20:06:00,
2013-02-07 15:12:00,62.8,46.9,29.89,WSW,248,6.0,6.0,56,0.00,,,0.00,Wunderground v.1.15,2013-02-07 20:12:00,
2013-02-07 15:18:00,62.6,47.1,29.90,SW,223,7.0,8.0,57,0.00,,,0.00,Wunderground v.1.15,2013-02-07 20:18:00,
2013-02-07 15:24:00,62.7,48.2,29.89,SW,232,7.0,8.0,59,0.00,,,0.00,Wunderground v.1.15,2013-02-07 20:24:00,
2013-02-07 15:30:00,62.8,46.9,29.89,SSW,208,6.0,6.0,56,0.00,,,0.00,Wunderground v.1.15,2013-02-07 20:30:00,
2013-02-07 15:36:00,62.9,46.5,29.89,SSW,195,5.0,7.0,55,0.00,,,0.00,Wunderground v.1.15,2013-02-07 20:36:00,
2013-02-07 15:42:00,62.9,47.0,29.89,SW,215,5.0,6.0,56,0.00,,,0.00,Wunderground v.1.15,2013-02-07 20:42:00,
2013-02-07 15:48:00,62.9,47.0,29.88,SE,144,5.0,6.0,56,0.00,,,0.00,Wunderground v.1.15,2013-02-07 20:48:00,
2013-02-07 15:54:00,63.4,47.9,29.89,SSW,193,4.0,6.0,57,0.00,,,0.00,Wunderground v.1.15,2013-02-07 20:54:00,
2013-02-07 16:00:00,63.4,47.4,29.88,SSW,196,4.0,7.0,56,0.00,,,0.00,Wunderground v.1.15,2013-02-07 21:00:00,
2013-02-07 16:06:00,63.1,47.1,29.88,SSE,151,6.0,7.0,56,0.00,,,0.00,Wunderground v.1.15,2013-02-07 21:06:00,
2013-02-07 16:12:00,63.2,47.7,29.88,SSW,198,4.0,5.0,57,0.00,,,0.00,Wunderground v.1.15,2013-02-07 21:12:00,
2013-02-07 16:18:00,63.3,47.3,29.88,South,175,4.0,7.0,56,0.00,,,0.00,Wunderground v.1.15,2013-02-07 21:18:00,
2013-02-07 16:24:00,63.0,47.5,29.88,South,180,5.0,8.0,57,0.00,,,0.00,Wunderground v.1.15,2013-02-07 21:24:00,
2013-02-07 16:30:00,62.9,47.4,29.87,South,182,4.0,5.0,57,0.00,,,0.00,Wunderground v.1.15,2013-02-07 21:30:00,
2013-02-07 16:36:00,62.7,46.8,29.87,SSE,150,4.0,7.0,56,0.00,,,0.00,Wunderground v.1.15,2013-02-07 21:36:00,
2013-02-07 16:42:00,62.7,47.7,29.87,SW,233,5.0,5.0,58,0.00,,,0.00,Wunderground v.1.15,2013-02-07 21:42:00,
2013-02-07 16:48:00,62.7,47.2,29.86,SW,230,4.0,5.0,57,0.00,,,0.00,Wunderground v.1.15,2013-02-07 21:48:00,
2013-02-07 16:54:00,62.8,48.3,29.86,SW,228,3.0,4.0,59,0.00,,,0.00,Wunderground v.1.15,2013-02-07 21:54:00,
2013-02-07 17:00:00,62.7,47.2,29.86,WSW,242,2.0,4.0,57,0.00,,,0.00,Wunderground v.1.15,2013-02-07 22:00:00,
2013-02-07 17:06:00,62.6,47.1,29.86,SSW,192,3.0,4.0,57,0.00,,,0.00,Wunderground v.1.15,2013-02-07 22:06:00,
2013-02-07 17:12:00,62.3,46.4,29.86,SW,219,4.0,6.0,56,0.00,,,0.00,Wunderground v.1.15,2013-02-07 22:12:00,
2013-02-07 17:18:00,62.0,46.6,29.86,SSW,198,5.0,6.0,57,0.00,,,0.00,Wunderground v.1.15,2013-02-07 22:18:00,
2013-02-07 17:24:00,61.8,45.9,29.86,SSW,192,3.0,7.0,56,0.00,,,0.00,Wunderground v.1.15,2013-02-07 22:24:00,
2013-02-07 17:30:00,61.8,46.9,29.85,South,190,2.0,2.0,58,0.00,,,0.00,Wunderground v.1.15,2013-02-07 22:30:00,
2013-02-07 17:36:00,61.8,46.4,29.86,WSW,255,1.0,2.0,57,0.00,,,0.00,Wunderground v.1.15,2013-02-07 22:36:00,
2013-02-07 17:42:00,61.5,46.1,29.85,WSW,254,1.0,1.0,57,0.00,,,0.00,Wunderground v.1.15,2013-02-07 22:42:00,
2013-02-07 17:48:00,61.2,45.8,29.85,WSW,252,0.0,3.0,57,0.00,,,0.00,Wunderground v.1.15,2013-02-07 22:48:00,
2013-02-07 17:54:00,60.8,45.9,29.85,WSW,252,1.0,1.0,58,0.00,,,0.00,Wunderground v.1.15,2013-02-07 22:54:00,
2013-02-07 18:00:00,60.4,45.5,29.84,WSW,248,0.0,0.0,58,0.00,,,0.00,Wunderground v.1.15,2013-02-07 23:00:00,
2013-02-07 18:06:00,60.1,45.7,29.84,WSW,248,0.0,0.0,59,0.00,,,0.00,Wunderground v.1.15,2013-02-07 23:06:00,
2013-02-07 18:12:00,59.8,45.4,29.84,WSW,248,0.0,0.0,59,0.00,,,0.00,Wunderground v.1.15,2013-02-07 23:12:00,
2013-02-07 18:18:00,59.5,45.6,29.84,WSW,248,0.0,0.0,60,0.00,,,0.00,Wunderground v.1.15,2013-02-07 23:18:00,
2013-02-07 18:24:00,59.2,45.3,29.84,WSW,248,0.0,0.0,60,0.00,,,0.00,Wunderground v.1.15,2013-02-07 23:24:00,
2013-02-07 18:30:00,58.9,45.5,29.84,WSW,248,0.0,0.0,61,0.00,,,0.00,Wunderground v.1.15,2013-02-07 23:30:00,
2013-02-07 18:36:00,58.7,45.3,29.84,WSW,248,0.0,0.0,61,0.00,,,0.00,Wunderground v.1.15,2013-02-07 23:36:00,
2013-02-07 18:42:00,58.6,45.2,29.84,WSW,248,0.0,0.0,61,0.00,,,0.00,Wunderground v.1.15,2013-02-07 23:42:00,
2013-02-07 18:48:00,58.5,45.1,29.84,WSW,248,0.0,0.0,61,0.00,,,0.00,Wunderground v.1.15,2013-02-07 23:48:00,
2013-02-07 18:54:00,58.2,45.2,29.84,WSW,248,0.0,0.0,62,0.00,,,0.00,Wunderground v.1.15,2013-02-07 23:54:00,
2013-02-07 19:00:00,58.1,45.1,29.84,WSW,248,0.0,0.0,62,0.00,,,0.00,Wunderground v.1.15,2013-02-08 00:00:00,
2013-02-07 19:06:00,57.9,45.4,29.84,WSW,248,0.0,0.0,63,0.00,,,0.00,Wunderground v.1.15,2013-02-08 00:06:00,
2013-02-07 19:12:00,57.8,45.3,29.84,WSW,248,0.0,0.0,63,0.00,,,0.00,Wunderground v.1.15,2013-02-08 00:12:00,
2013-02-07 19:18:00,57.6,45.1,29.83,WSW,248,0.0,0.0,63,0.00,,,0.00,Wunderground v.1.15,2013-02-08 00:18:00,
2013-02-07 19:24:00,57.3,45.2,29.83,WSW,248,0.0,0.0,64,0.00,,,0.00,Wunderground v.1.15,2013-02-08 00:24:00,
2013-02-07 19:30:00,57.1,45.0,29.84,WSW,248,0.0,0.0,64,0.00,,,0.00,Wunderground v.1.15,2013-02-08 00:30:00,
2013-02-07 19:36:00,56.9,45.3,29.84,WSW,248,0.0,0.0,65,0.00,,,0.00,Wunderground v.1.15,2013-02-08 00:36:00,
2013-02-07 19:42:00,56.8,45.2,29.84,WSW,248,0.0,0.0,65,0.00,,,0.00,Wunderground v.1.15,2013-02-08 00:42:00,
2013-02-07 19:48:00,56.9,45.7,29.84,WSW,248,0.0,0.0,66,0.00,,,0.00,Wunderground v.1.15,2013-02-08 00:48:00,
2013-02-07 19:54:00,57.0,45.7,29.84,WSW,248,0.0,0.0,66,0.00,,,0.00,Wunderground v.1.15,2013-02-08 00:54:00,
2013-02-07 20:00:00,57.1,45.8,29.83,WSW,248,0.0,0.0,66,0.00,,,0.00,Wunderground v.1.15,2013-02-08 01:00:00,
2013-02-07 20:06:00,57.2,45.9,29.83,WSW,248,0.0,0.0,66,0.00,,,0.00,Wunderground v.1.15,2013-02-08 01:06:00,
2013-02-07 20:12:00,57.1,45.8,29.83,WSW,248,0.0,0.0,66,0.00,,,0.00,Wunderground v.1.15,2013-02-08 01:12:00,
2013-02-07 20:18:00,57.1,46.2,29.82,WSW,242,0.0,0.0,67,0.00,,,0.00,Wunderground v.1.15,2013-02-08 01:18:00,
2013-02-07 20:24:00,57.0,46.1,29.82,WSW,242,0.0,0.0,67,0.00,,,0.00,Wunderground v.1.15,2013-02-08 01:24:00,
2013-02-07 20:30:00,57.1,46.2,29.82,WSW,241,0.0,0.0,67,0.00,,,0.00,Wunderground v.1.15,2013-02-08 01:30:00,
2013-02-07 20:36:00,57.3,46.4,29.82,WSW,238,1.0,3.0,67,0.00,,,0.00,Wunderground v.1.15,2013-02-08 01:36:00,
2013-02-07 20:42:00,57.4,46.5,29.82,WSW,237,1.0,1.0,67,0.00,,,0.00,Wunderground v.1.15,2013-02-08 01:42:00,
2013-02-07 20:48:00,57.5,46.6,29.82,SW,236,1.0,1.0,67,0.00,,,0.00,Wunderground v.1.15,2013-02-08 01:48:00,
2013-02-07 20:54:00,57.5,47.0,29.82,SW,232,1.0,2.0,68,0.00,,,0.00,Wunderground v.1.15,2013-02-08 01:54:00,
2013-02-07 21:00:00,57.4,46.9,29.82,SW,223,1.0,1.0,68,0.00,,,0.00,Wunderground v.1.15,2013-02-08 02:00:00,
2013-02-07 21:06:00,57.3,46.8,29.82,SW,223,0.0,1.0,68,0.00,,,0.00,Wunderground v.1.15,2013-02-08 02:06:00,
2013-02-07 21:12:00,57.1,46.6,29.82,SW,220,0.0,5.0,68,0.00,,,0.00,Wunderground v.1.15,2013-02-08 02:12:00,
2013-02-07 21:18:00,57.0,46.5,29.82,SW,215,1.0,5.0,68,0.00,,,0.00,Wunderground v.1.15,2013-02-08 02:18:00,
2013-02-07 21:24:00,57.1,46.6,29.82,SW,215,1.0,1.0,68,0.00,,,0.00,Wunderground v.1.15,2013-02-08 02:24:00,
2013-02-07 21:30:00,57.0,46.9,29.82,SW,215,1.0,1.0,69,0.00,,,0.00,Wunderground v.1.15,2013-02-08 02:30:00,
2013-02-07 21:36:00,57.0,46.9,29.82,SW,215,0.0,3.0,69,0.00,,,0.00,Wunderground v.1.15,2013-02-08 02:36:00,
2013-02-07 21:42:00,57.0,46.9,29.82,SSW,212,1.0,1.0,69,0.00,,,0.00,Wunderground v.1.15,2013-02-08 02:42:00,
2013-02-07 21:48:00,56.9,47.2,29.81,SSW,212,1.0,2.0,70,0.00,,,0.00,Wunderground v.1.15,2013-02-08 02:48:00,
2013-02-07 21:54:00,56.9,47.2,29.81,SSW,212,1.0,3.0,70,0.00,,,0.00,Wunderground v.1.15,2013-02-08 02:54:00,
2013-02-07 22:00:00,56.9,47.2,29.81,SSW,200,1.0,1.0,70,0.00,,,0.00,Wunderground v.1.15,2013-02-08 03:00:00,
2013-02-07 22:06:00,56.8,47.1,29.81,South,182,2.0,3.0,70,0.00,,,0.00,Wunderground v.1.15,2013-02-08 03:06:00,
2013-02-07 22:12:00,56.8,47.1,29.81,SSW,192,3.0,6.0,70,0.00,,,0.00,Wunderground v.1.15,2013-02-08 03:12:00,
2013-02-07 22:18:00,56.7,47.8,29.82,SW,228,4.0,6.0,72,0.00,,,0.01,Wunderground v.1.15,2013-02-08 03:18:00,
2013-02-07 22:24:00,55.8,49.0,29.83,West,279,3.0,4.0,78,0.46,,,0.03,Wunderground v.1.15,2013-02-08 03:24:00,
2013-02-07 22:30:00,54.1,49.4,29.83,WNW,290,3.0,3.0,84,0.24,,,0.06,Wunderground v.1.15,2013-02-08 03:30:00,
2013-02-07 22:36:00,53.2,49.4,29.83,WNW,289,1.0,3.0,87,0.40,,,0.09,Wunderground v.1.15,2013-02-08 03:36:00,
2013-02-07 22:42:00,52.5,49.4,29.83,WNW,286,1.0,3.0,89,0.56,,,0.13,Wunderground v.1.15,2013-02-08 03:42:00,
2013-02-07 22:48:00,52.0,49.5,29.83,WNW,286,1.0,3.0,91,0.11,,,0.14,Wunderground v.1.15,2013-02-08 03:48:00,
2013-02-07 22:54:00,51.7,49.5,29.83,WNW,285,0.0,2.0,92,0.07,,,0.15,Wunderground v.1.15,2013-02-08 03:54:00,
2013-02-07 23:00:00,51.5,49.3,29.83,WNW,285,0.0,3.0,92,0.07,,,0.15,Wunderground v.1.15,2013-02-08 04:00:00,
2013-02-07 23:06:00,51.4,49.4,29.83,WNW,285,0.0,3.0,93,0.04,,,0.15,Wunderground v.1.15,2013-02-08 04:06:00,
2013-02-07 23:12:00,51.3,49.6,29.83,WNW,285,0.0,2.0,94,0.00,,,0.16,Wunderground v.1.15,2013-02-08 04:12:00,
2013-02-07 23:18:00,51.2,49.5,29.83,WNW,285,0.0,2.0,94,0.00,,,0.16,Wunderground v.1.15,2013-02-08 04:18:00,
2013-02-07 23:24:00,51.1,49.4,29.83,WNW,285,0.0,0.0,94,0.04,,,0.17,Wunderground v.1.15,2013-02-08 04:24:00,
2013-02-07 23:30:00,51.0,49.3,29.83,WNW,285,0.0,0.0,94,0.20,,,0.19,Wunderground v.1.15,2013-02-08 04:30:00,
2013-02-07 23:36:00,51.0,49.6,29.82,WNW,285,0.0,0.0,95,0.08,,,0.19,Wunderground v.1.15,2013-02-08 04:36:00,
2013-02-07 23:42:00,50.9,49.5,29.83,WNW,285,0.0,0.0,95,0.26,,,0.21,Wunderground v.1.15,2013-02-08 04:42:00,
2013-02-07 23:48:00,50.8,49.4,29.83,WNW,285,0.0,2.0,95,0.13,,,0.22,Wunderground v.1.15,2013-02-08 04:48:00,
2013-02-07 23:54:00,50.7,49.3,29.83,WNW,288,1.0,2.0,95,0.06,,,0.22,Wunderground v.1.15,2013-02-08 04:54:00,